sat.trackr.live / text

‹ back to catalog

HULIANWANG DIGUI-63

NORAD 65169 · 2025-174F

PAYLOAD ACTIVE UNKNOWN

§ Identity

Operator
Country
PRC
Launch date
2025-08-13
Launch site
WSC
Launch vehicle
Mass (kg)
RCS (m²)

External: N2YO · Heavens-Above · Gunter

§ Orbital elements

Epoch: 2026-05-25T04:27:52.763904Z

Period
108.73 min
Inclination
86.4954°
Eccentricity
0.0002024
Mean motion
13.24400313 rev/d
Perigee alt
1,166.4 km
Apogee alt
1,169.5 km
Semi-major
7,546.1 km
B*
9.7101e-5
RAAN
259.7881°
Arg perigee
89.9558°
Mean anomaly
270.1808°
Rev number
3,774

§ Raw data

HULIANWANG DIGUI-631 65169U 25174F   26145.18602736  .00000056  00000+0  97101-4 0  99992 65169  86.4954 259.7881 0002024  89.9558 270.1808 13.24400313 37745

JSON: /api/v1/satellites/65169 · /tle

For live sub-satellite position, see the globe view (requires WebGL).

§ Visibility from observer

Set your observer location to see the next 7 days of passes ≥ 10°. The values pass through the URL so the page stays shareable.

No JS? Fill the form by hand. The geolocation button needs JavaScript.